Location: *
(58.7167°N, 26.1833°E)
Time: 03:02:25
(UTC+00:00)

ERS-1 Rocket - Pass Details

Date: 25 August 2019
Orbit: 753 x 758 km, 98.5° (Epoch: 16 September)

Event Time Altitude Azimuth Distance (km) Brightness Sun altitude
Exits shadow 19:38:50 14° 175° (S) 2,024 4.7 -13.6°
Maximum altitude 19:43:10 65° 256° (WSW) 831 3.3 -14.0°
Drops below altitude 10° 19:48:11 10° 339° (NNW) 2,293 6.7 -14.4°
Sets 19:50:31 0° 342° (NNW) 3,222 7.7 -14.6°
